Location: Devore Heights
(34.2372°N, 117.4156°W)
Time: 04:01:18
(UTC+00:00)

S-56A Canister/Altair - Pass Details

Date: 16 September 2024
Orbit: 636 x 2487 km, 38.9° (Epoch: 05 October)

Event Time Altitude Azimuth Distance (km) Brightness Sun altitude
Rises 03:15:49 0° 268° (W) 3,263 12.2 -17.2°
Reaches altitude 10° 03:17:58 10° 272° (W) 2,478 11.3 -17.7°
Maximum altitude 03:23:46 64° 354° (N) 1,193 8.5 -18.8°
Enters shadow 03:29:40 21° 71° (ENE) 2,695 9.8 -20.0°
Drops below altitude 10° 03:32:34 10° 75° (ENE) 3,680 - -20.5°
Sets 03:36:24 0° 78° (ENE) 4,975 - -21.3°
